Weather History for Hebron, NE

Change the Weather History Date:

Wednesday, January 16, 2013

  Actual Average Record
Temperature  
Mean Temperature 38 °F -  
Max Temperature 53 °F 36 °F 56 °F (1990)
Min Temperature 22 °F 13 °F -13 °F (1977)
Degree Days  
Heating Degree Days 28    
Moisture  
Dew Point 26 °F    
Average Humidity 64    
Maximum Humidity 81    
Minimum Humidity 39    
Precipitation  
Precipitation 0.00 in - - ()
Sea Level Pressure  
Sea Level Pressure 30.06 in    
Wind  
Wind Speed 9 mph (WNW)    
Max Wind Speed 16 mph    
Max Gust Speed 23 mph    
Visibility 10 miles    
Events      
Averages and records for this station are not official NWS values.
T = Trace of Precipitation, MM = Missing Value Source: NWS Daily Summary

Daily Weather History Graph

Daily Weather History Graph

Search for Another Location

Airport:

Trip Planner

Search our weather history database for the weather conditions in past years. The results will help you decide how hot, cold, wet, or windy it might be!

Date:

Astronomy

Jan. 16, 2013 Rise Set
Actual Time 7:50 AM CST 5:30 PM CST
Civil Twilight 7:20 AM CST 6:00 PM CST
Nautical Twilight 6:47 AM CST 6:33 PM CST
Astronomical Twilight 6:14 AM CST 7:06 PM CST
Moon 10:26 AM CST (1/16) 11:23 PM CST (1/16)
Length of Visible Light 10h 39m
Length of Day
9h 40m
Waxing Crescent, 28% of the Moon is Illuminated
Jan 16
Waxing Crescent
Jan 18
First Quarter
Jan 26
Full
Feb 3
Last Quarter
Feb 10
New

Hourly Weather History & Observations

Time (CST) Temp. Windchill Dew Point Humidity Pressure Visibility Wind Dir Wind Speed Gust Speed Precip Events Conditions
12:15 AM 24.8 °F 13.4 °F 18.1 °F 76% 30.05 in 10.0 mi SW 12.7 mph 18.4 mph N/A   Clear
12:35 AM 24.4 °F 13.5 °F 17.6 °F 75% 30.05 in 10.0 mi SW 11.5 mph - N/A   Clear
12:55 AM 24.3 °F 15.4 °F 17.6 °F 76% 30.05 in 10.0 mi SW 8.1 mph - N/A   Clear
1:15 AM 23.4 °F 15.2 °F 17.2 °F 77% 30.04 in 10.0 mi WSW 6.9 mph - N/A   Clear
1:35 AM 23.4 °F 16.2 °F 17.1 °F 77% 30.03 in 10.0 mi SW 5.8 mph - N/A   Clear
1:55 AM 23.0 °F 15.8 °F 16.7 °F 77% 30.03 in 10.0 mi SW 5.8 mph - N/A   Clear
2:35 AM 22.6 °F 14.3 °F 16.7 °F 78% 30.03 in 10.0 mi WSW 6.9 mph - N/A   Clear
2:55 AM 22.8 °F 12.2 °F 16.5 °F 77% 30.02 in 10.0 mi SW 10.4 mph - N/A   Clear
3:15 AM 23.9 °F 14.2 °F 16.3 °F 73% 30.02 in 10.0 mi SW 9.2 mph - N/A   Scattered Clouds
3:35 AM 24.6 °F 14.4 °F 16.2 °F 70% 30.01 in 10.0 mi SW 10.4 mph - N/A   Scattered Clouds
3:55 AM 24.8 °F 15.3 °F 16.2 °F 70% 30.00 in 10.0 mi WSW 9.2 mph - N/A   Mostly Cloudy
4:35 AM 26.1 °F 17.6 °F 17.1 °F 69% 29.99 in 10.0 mi WSW 8.1 mph - N/A   Overcast
4:55 AM 25.7 °F 19.0 °F 17.4 °F 71% 29.99 in 10.0 mi West 5.8 mph - N/A   Overcast
5:15 AM 25.9 °F 17.4 °F 17.8 °F 71% 29.99 in 10.0 mi WSW 8.1 mph - N/A   Mostly Cloudy
5:35 AM 26.4 °F 18.9 °F 18.5 °F 72% 29.98 in 10.0 mi West 6.9 mph - N/A   Overcast
5:55 AM 27.0 °F 19.5 °F 19.0 °F 72% 29.98 in 10.0 mi West 6.9 mph - N/A   Overcast
6:35 AM 28.4 °F 21.2 °F 20.8 °F 73% 29.98 in 10.0 mi West 6.9 mph - N/A   Overcast
6:55 AM 29.1 °F 22.1 °F 21.9 °F 74% 29.99 in 10.0 mi West 6.9 mph - N/A   Overcast
7:15 AM 30.0 °F 22.4 °F 22.6 °F 74% 30.00 in 10.0 mi West 8.1 mph - N/A   Overcast
7:35 AM 30.6 °F 22.4 °F 23.4 °F 75% 30.00 in 10.0 mi West 9.2 mph - N/A   Overcast
7:55 AM 31.1 °F 24.5 °F 23.9 °F 75% 30.00 in 10.0 mi West 6.9 mph - N/A   Overcast
8:15 AM 31.6 °F 27.0 °F 24.8 °F 76% 30.00 in 10.0 mi West 4.6 mph - N/A   Overcast
8:35 AM 32.5 °F 26.2 °F 25.9 °F 76% 30.01 in 10.0 mi West 6.9 mph - N/A   Overcast
8:55 AM 33.1 °F 27.7 °F 26.6 °F 77% 30.01 in 10.0 mi West 5.8 mph - N/A   Scattered Clouds
9:15 AM 36.0 °F 31.1 °F 28.4 °F 74% 30.02 in 10.0 mi West 5.8 mph - N/A   Clear
9:35 AM 39.9 °F 33.4 °F 29.8 °F 67% 30.01 in 10.0 mi NW 10.4 mph - N/A   Clear
9:55 AM 41.9 °F 34.6 °F 30.0 °F 63% 30.01 in 10.0 mi NW 13.8 mph 19.6 mph N/A   Clear
10:15 AM 43.0 °F 36.0 °F 30.2 °F 61% 30.02 in 10.0 mi NW 13.8 mph 23.0 mph N/A   Clear
10:35 AM 44.4 °F 38.2 °F 30.2 °F 57% 30.02 in 10.0 mi NW 12.7 mph 17.3 mph N/A   Clear
10:55 AM 46.0 °F 41.0 °F 30.2 °F 54% 30.02 in 10.0 mi NW 10.4 mph 19.6 mph N/A   Clear
11:15 AM 47.3 °F - 30.0 °F 51% 30.02 in 10.0 mi NW 16.1 mph 20.7 mph N/A   Clear
11:35 AM 48.2 °F - 29.7 °F 49% 30.02 in 10.0 mi NNW 13.8 mph - N/A   Clear
11:55 AM 49.1 °F - 29.3 °F 46% 30.02 in 10.0 mi NNW 15.0 mph - N/A   Clear
12:15 PM 49.3 °F - 29.7 °F 47% 30.02 in 10.0 mi NNW 11.5 mph 20.7 mph N/A   Clear
12:35 PM 50.0 °F - 29.8 °F 46% 30.01 in 10.0 mi NW 9.2 mph - N/A   Clear
12:55 PM 50.9 °F - 29.7 °F 44% 30.01 in 10.0 mi NNW 9.2 mph - N/A   Clear
1:15 PM 51.1 °F - 29.3 °F 43% 30.00 in 10.0 mi NW 11.5 mph - N/A   Clear
1:35 PM 52.2 °F - 28.6 °F 40% 30.00 in 10.0 mi NNW 10.4 mph - N/A   Clear
2:15 PM 52.5 °F - 29.8 °F 42% 30.00 in 10.0 mi WNW 10.4 mph - N/A   Clear
2:35 PM 52.0 °F - 29.3 °F 42% 30.01 in 10.0 mi WNW 12.7 mph - N/A   Clear
2:55 PM 52.3 °F - 29.1 °F 41% 30.01 in 10.0 mi NW 11.5 mph 16.1 mph N/A   Clear
3:15 PM 52.7 °F - 29.1 °F 40% 30.01 in 10.0 mi NW 10.4 mph - N/A   Clear
3:35 PM 52.9 °F - 29.7 °F 41% 30.02 in 10.0 mi NW 8.1 mph - N/A   Clear
3:55 PM 53.2 °F - 28.6 °F 39% 30.03 in 10.0 mi NW 8.1 mph - N/A   Clear
4:15 PM 52.0 °F - 29.1 °F 41% 30.04 in 10.0 mi NW 9.2 mph - N/A   Clear
4:35 PM 51.1 °F - 30.2 °F 45% 30.05 in 10.0 mi NW 5.8 mph - N/A   Clear
4:55 PM 49.6 °F - 30.0 °F 47% 30.05 in 10.0 mi NW 4.6 mph - N/A   Clear
5:15 PM 47.5 °F - 29.8 °F 50% 30.05 in 10.0 mi West 8.1 mph - N/A   Clear
5:35 PM 45.1 °F 42.0 °F 31.1 °F 58% 30.07 in 10.0 mi West 5.8 mph - N/A   Clear
5:55 PM 42.6 °F 39.9 °F 30.2 °F 61% 30.09 in 10.0 mi West 4.6 mph - N/A   Clear
6:15 PM 41.2 °F 39.2 °F 29.7 °F 64% 30.09 in 10.0 mi NW 3.5 mph - N/A   Clear
6:35 PM 42.1 °F 37.1 °F 29.8 °F 62% 30.10 in 10.0 mi NW 8.1 mph - N/A   Clear
6:55 PM 41.5 °F 36.4 °F 29.7 °F 63% 30.12 in 10.0 mi WNW 8.1 mph - N/A   Clear
7:15 PM 40.5 °F 34.6 °F 29.5 °F 65% 30.12 in 10.0 mi NW 9.2 mph - N/A   Clear
7:35 PM 40.5 °F 35.8 °F 29.3 °F 64% 30.14 in 10.0 mi NW 6.9 mph - N/A   Clear
7:55 PM 39.7 °F 35.6 °F 28.9 °F 65% 30.15 in 10.0 mi WNW 5.8 mph - N/A   Clear
8:15 PM 38.7 °F 34.3 °F 28.9 °F 68% 30.16 in 10.0 mi WNW 5.8 mph - N/A   Clear
8:35 PM 37.9 °F 32.7 °F 28.9 °F 70% 30.17 in 10.0 mi WNW 6.9 mph - N/A   Clear
8:55 PM 39.0 °F 34.8 °F 28.8 °F 67% 30.17 in 10.0 mi NW 5.8 mph - N/A   Clear
9:15 PM 37.0 °F 31.6 °F 28.8 °F 72% 30.19 in 10.0 mi NW 6.9 mph - N/A   Clear
9:35 PM 36.3 °F 32.5 °F 28.4 °F 73% 30.21 in 10.0 mi NW 4.6 mph - N/A   Clear
9:55 PM 35.8 °F 30.9 °F 28.8 °F 76% 30.22 in 10.0 mi NW 5.8 mph - N/A   Clear
10:15 PM 35.1 °F 31.0 °F 28.4 °F 77% 30.23 in 10.0 mi NW 4.6 mph - N/A   Clear
10:35 PM 34.0 °F 29.8 °F 28.0 °F 79% 30.23 in 10.0 mi NW 4.6 mph - N/A   Clear
10:55 PM 33.4 °F 28.1 °F 27.7 °F 79% 30.23 in 10.0 mi NNW 5.8 mph - N/A   Clear
11:15 PM 34.5 °F 29.4 °F 27.7 °F 76% 30.24 in 10.0 mi NW 5.8 mph - N/A   Clear
11:35 PM 33.3 °F 27.9 °F 27.5 °F 79% 30.25 in 10.0 mi NNW 5.8 mph - N/A   Clear
11:55 PM 32.9 °F 27.5 °F 27.5 °F 81% 30.27 in 10.0 mi NW 5.8 mph - N/A   Clear